Location: Klagenfurt
(46.6230°N, 14.2987°E)
Time: 17:33:14
(UTC+01:00)

ISS - Pass Details

Date: 23 December 2025
Orbit: 414 x 424 km, 51.6° (Epoch: 12 January)

Event Time Altitude Azimuth Distance (km) Brightness Sun altitude
Exits shadow 05:39:01 32° 15° (NNE) 752 -2.5 -20.6°
Drops below altitude 10° 05:41:42 10° 64° (ENE) 1,521 -0.2 -20.1°
Sets 05:43:51 0° 73° (ENE) 2,355 1.1 -19.8°
